Lavon Lake Weather Center

Moon Phase Calendar



Lavon Lake Water Level
Online Cameras

 


      

Current Conditions in Culleoka
6/29/2022 4:24:15 PM

93°F
Feels Like 91
Clear
Humidity
28%
Pressure
30.03"
Wind
8 mph (ENE)
Dew Point
55°F
UV Index
7/10 (High)
Visibility
6 mi

Hourly Forecast

Date & Time Wed, Jun 29
4:00 PM
Wed, Jun 29
5:00 PM
Wed, Jun 29
6:00 PM
Wed, Jun 29
7:00 PM
Wed, Jun 29
8:00 PM
Wed, Jun 29
9:00 PM
Wed, Jun 29
10:00 PM
Wed, Jun 29
11:00 PM
Thu, Jun 30
12:00 AM
Thu, Jun 30
1:00 AM
Thu, Jun 30
2:00 AM
Thu, Jun 30
3:00 AM
Thu, Jun 30
4:00 AM
Thu, Jun 30
5:00 AM
Thu, Jun 30
6:00 AM
Thu, Jun 30
7:00 AM
Thu, Jun 30
8:00 AM
Thu, Jun 30
9:00 AM
Thu, Jun 30
10:00 AM
Thu, Jun 30
11:00 AM
Thu, Jun 30
12:00 PM
Thu, Jun 30
1:00 PM
Thu, Jun 30
2:00 PM
Thu, Jun 30
3:00 PM
Thu, Jun 30
4:00 PM
Thu, Jun 30
5:00 PM
Thu, Jun 30
6:00 PM
Thu, Jun 30
7:00 PM
Thu, Jun 30
8:00 PM
Thu, Jun 30
9:00 PM
Thu, Jun 30
10:00 PM
Thu, Jun 30
11:00 PM
Fri, Jul 1
12:00 AM
Fri, Jul 1
1:00 AM
Fri, Jul 1
2:00 AM
Fri, Jul 1
3:00 AM
Fri, Jul 1
4:00 AM
Fri, Jul 1
5:00 AM
Fri, Jul 1
6:00 AM
Fri, Jul 1
7:00 AM
Fri, Jul 1
8:00 AM
Fri, Jul 1
9:00 AM
Fri, Jul 1
10:00 AM
Fri, Jul 1
11:00 AM
Fri, Jul 1
12:00 PM
Fri, Jul 1
1:00 PM
Fri, Jul 1
2:00 PM
Fri, Jul 1
3:00 PM
Condition
Clear

Clear

Clear

Clouds

Clear

Clear

Clear

Clear

Clear

Clear

Clear

Clear

Clear

Clear

Clear

Clear

Clear

Clear

Clear

Clear

Clear

Clear

Clear

Clouds

Clouds

Clouds

Rain

Clouds

Clouds

Clouds

Clouds

Clouds

Clouds

Clouds

Clouds

Clouds

Clouds

Clouds

Clouds

Clouds

Clear

Clear

Clear

Clear

Clear

Clouds

Clouds

Clouds
Temperature 93°F94°F94°F94°F91°F83°F79°F77°F76°F75°F74°F74°F74°F73°F74°F75°F80°F84°F88°F92°F95°F98°F100°F98°F95°F92°F87°F86°F84°F80°F82°F81°F80°F78°F76°F74°F73°F72°F72°F72°F76°F80°F84°F88°F91°F93°F91°F94°F
Feels Like 91°F91°F91°F91°F87°F81°F79°F76°F76°F74°F73°F73°F73°F73°F74°F75°F80°F87°F91°F94°F97°F98°F100°F98°F96°F92°F88°F87°F86°F82°F84°F82°F82°F78°F76°F75°F74°F73°F72°F72°F76°F82°F85°F90°F93°F95°F93°F95°F
Cloudiness 0%5%9%11%5%6%7%6%5%5%6%4%2%2%1%1%0%2%2%2%1%1%0%49%66%74%79%83%100%100%100%86%88%90%96%98%99%99%99%85%4%4%5%6%8%19%96%59%
Visibility 6 mi6 mi6 mi6 mi6 mi6 mi6 mi6 mi6 mi6 mi6 mi6 mi6 mi6 mi6 mi6 mi6 mi6 mi6 mi6 mi6 mi6 mi6 mi6 mi6 mi6 mi6 mi6 mi6 mi6 mi6 mi6 mi6 mi6 mi6 mi6 mi6 mi6 mi6 mi6 mi6 mi6 mi6 mi6 mi6 mi6 mi6 mi6 mi
Precipitation 0%0%0%0%0%0%0%0%0%0%0%0%0%0%0%0%11%8%8%4%4%4%0%0%0%8%35%15%32%36%25%19%15%15%0%0%0%0%0%0%0%0%0%0%0%0%3%3%
Humidity 28%25%23%21%22%27%31%34%37%40%42%43%47%57%66%72%65%55%47%40%34%29%26%26%31%37%45%46%52%63%56%58%56%61%64%66%69%71%72%72%62%55%52%47%42%39%40%37%
Dew Point 55°F53°F51°F48°F47°F45°F46°F47°F48°F49°F50°F50°F52°F57°F61°F65°F67°F67°F66°F64°F63°F61°F59°F58°F60°F61°F64°F64°F65°F66°F65°F65°F63°F63°F63°F62°F62°F62°F62°F62°F62°F62°F65°F65°F65°F65°F64°F64°F
Pressure 30.03"30.03"30.03"30"30"30"30.03"30.03"30.03"30.03"30.06"30.03"30.03"30.03"30.03"30.03"30.06"30.06"30.03"30.03"30"29.97"29.94"29.91"29.91"29.91"29.91"29.91"29.91"29.94"29.94"29.94"29.97"29.97"29.97"29.97"29.97"29.97"29.97"30"30"30.03"30"30"29.97"29.94"29.94"29.91"
Wind Speed 11 mph11 mph11.2 mph11.6 mph10.8 mph10.8 mph10.6 mph9.6 mph9 mph7.4 mph6.8 mph5.9 mph6.5 mph5.8 mph6.6 mph6.9 mph9.7 mph11.6 mph11.5 mph11.3 mph10.5 mph9.6 mph8.4 mph7.2 mph8.2 mph12.8 mph12 mph9.4 mph14.1 mph15.1 mph15.1 mph15.8 mph14.9 mph13.2 mph11.6 mph10.4 mph8.1 mph7.2 mph7.4 mph7.4 mph9.8 mph10.3 mph10.9 mph11.1 mph13 mph15.9 mph18 mph17.7 mph
Wind
Direction
54°
NE
59°
ENE
61°
ENE
61°
ENE
47°
NE
38°
NE
41°
NE
51°
NE
63°
ENE
105°
ESE
110°
ESE
101°
E
130°
SE
150°
SSE
160°
SSE
171°
S
170°
S
169°
S
173°
S
178°
S
182°
S
185°
S
196°
SSW
193°
SSW
162°
SSE
159°
SSE
163°
SSE
147°
SSE
133°
SE
152°
SSE
159°
SSE
174°
S
175°
S
180°
S
184°
S
185°
S
184°
S
176°
S
169°
S
159°
SSE
172°
S
167°
SSE
159°
SSE
150°
SSE
143°
SE
141°
SE
131°
SE
139°
SE

Daily Forecast

Date High Low Precip. Humidity
Today
Jun 29

Clouds
94 °F
71 °F
0%
23%
Thursday
Jun 30

Rain
100 °F
73 °F
36%
29%
Friday
Jul 1

Clouds
93 °F
72 °F
15%
39%
Saturday
Jul 2

Rain
91 °F
70 °F
99%
62%
Sunday
Jul 3

Rain
93 °F
74 °F
100%
60%
Monday
Jul 4

Clouds
99 °F
76 °F
5%
40%
Tuesday
Jul 5

Clouds
101 °F
78 °F
0%
33%
Wednesday
Jul 6

Clear
102 °F
80 °F
8%
33%
Thursday
Jul 7

Clouds
101 °F
81 °F
8%
35%
Friday
Jul 8

Rain
97 °F
80 °F
47%
37%
Saturday
Jul 9

Rain
96 °F
78 °F
79%
40%
Sunday
Jul 10

Rain
92 °F
76 °F
80%
53%
Monday
Jul 11

Rain
97 °F
74 °F
45%
41%
Tuesday
Jul 12

Rain
99 °F
75 °F
30%
37%
Wednesday
Jul 13

Clouds
97 °F
75 °F
0%
30%
Thursday
Jul 14

Rain
98 °F
70 °F
34%
28%

Temperature 8-14 Day Outlook



Precipitation 8-14 Day Outlook






About Us
Contact Us
Site Map
Search Site
Advertise With Us
   
Lavon.USLakes.info
THE LAVON LAKE WEBSITE

Copyright 2022, Lakes Online
Privacy    |    Legal